[[{"header":{"parameterUnit":"m.s-1","parameterCategory":2,"la1":30.2991,"la2":30.254,"lo1":-89.0895,"lo2":-89.0444,"dy":0.0017,"dx":0.0017,"nx":28,"ny":28,"refTime":"2025-06-10T03:00:00:Z","depth":"0","parameterNumber":2,"parameterNumberName":"U-component_of_CURRENTS"},"data":[0,0,0,0,0,0,0,0,0,0,0,0,0,0,0,0,0,0,0,0,0,0,0,0,0,0,0,0,0,0,0,0,0,0,0,0,0,0,0,0,0,0,0,0,0,0,0,0,0,0,0,0,0,0,0,0,0,0,0.2073,0.2073,0,0.2079,0.2079,0.2079,0.2035,0.2034,0.2033,0.2032,0.2067,0.2069,0.2071,0,0,0,0,0,0,0,0,0,0,0,0,0,0.2068,0.2068,0.2073,0.2073,0.2073,0.2079,0.2079,0.2079,0.2036,0.2034,0.2033,0.2031,0.2066,0.2069,0.2071,0,0,0,0,0,0,0,0,0,0,0,0,0,0.2071,0.2068,0.2073,0.2053,0.2051,0.2079,0.2079,0.2079,0.2036,0.2034,0.2032,0.2031,0.2065,0.2068,0.2071,0.2126,0,0,0.2081,0.2082,0,0,0,0,0,0,0,0,0.2071,0.2072,0.2056,0.2054,0.2052,0.2055,0.209,0.2096,0.2036,0.2042,0.2032,0.203,0.2067,0.207,0.2074,0.2128,0.2129,0.2081,0.2083,0.2084,0.2085,0,0,0,0,0,0,0,0.2071,0.2071,0.2075,0.2056,0.2054,0.2058,0.2056,0.2091,0.2065,0.2041,0.2038,0.2039,0.2066,0.2071,0.2075,0.213,0.2081,0.2084,0.2086,0.2087,0.228,0.2283,0,0,0,0,0,0,0.207,0.2071,0.2075,0.2075,0.2058,0.2059,0.2057,0.2056,0.2064,0.2063,0.2041,0.2037,0.2067,0.2071,0.2076,0.219,0.2084,0.2087,0.2089,0.2277,0.2281,0.2284,0,0,0,0,0,0,0.207,0.2071,0.2075,0.2074,0.2074,0.2061,0.206,0.2057,0.2063,0.2063,0.2062,0.205,0.2066,0.2072,0.212,0.2189,0.2088,0.2091,0.2273,0.2278,0.2282,0.2387,0,0,0,0,0,0,0.207,0.2071,0.2083,0.2073,0.2074,0.2104,0.2061,0.2058,0.2066,0.2062,0.2072,0.2072,0.2065,0.2116,0.2124,0.2191,0.2094,0.2269,0.2275,0.2281,0.2379,0.2394,0.2408,0,0,0,0,0,0.207,0.2104,0.2084,0.2085,0.2087,0.2106,0.2108,0.2091,0.2069,0.2087,0.2093,0.2072,0.2161,0.2121,0.2129,0.2199,0.2266,0.2273,0.228,0.2373,0.2391,0.2407,0,0,0,0,0,0,0.2131,0.2102,0.208,0.2108,0.2108,0.2098,0.2121,0.2103,0.2122,0.2119,0.2108,0.2112,0.2192,0.218,0.2136,0.2275,0.2214,0.2223,0.2281,0.2299,0.2313,0.2334,0.2096,0,0,0,0,0,0.2145,0.2144,0.2128,0.2152,0.2153,0.2137,0.2145,0.2131,0.2139,0.2143,0.215,0.2175,0.2232,0.2247,0.229,0.2354,0.2349,0.2408,0.2422,0.2434,0.2459,0.2543,0.2567,0.2308,0.2308,0.2308,0,0,0.2172,0.216,0.2159,0.2162,0.2159,0.2178,0.2138,0.2157,0.219,0.215,0.2207,0.2233,0.2265,0.2346,0.238,0.2338,0.2494,0.2444,0.2454,0.2472,0.2553,0.2578,0.26,0.2314,0.2313,0.2312,0,0,0.2216,0.2218,0.2219,0.2225,0.2222,0.2226,0.2233,0.2231,0.2248,0.2299,0.2301,0.2372,0.2413,0.2472,0.2503,0.2627,0.2579,0.2627,0.2704,0.2785,0.2807,0.2826,0.2794,0.281,0.2619,0.262,0.262,0,0.2246,0.2245,0.2232,0.2241,0.2259,0.2248,0.2273,0.2305,0.2323,0.2373,0.233,0.2464,0.2492,0.2624,0.2666,0.2666,0.2649,0.263,0.2803,0.2823,0.2841,0.2804,0.2821,0.2626,0.2625,0.2624,0.2624,0,0.2273,0.2284,0.23,0.2299,0.2331,0.2355,0.2387,0.2443,0.246,0.2488,0.261,0.2644,0.2721,0.2751,0.2744,0.2898,0.282,0.2821,0.2755,0.2873,0.2826,0.2841,0.2634,0.2632,0.263,0.2629,0,0,0.2297,0.2307,0.231,0.2322,0.236,0.2388,0.249,0.2578,0.2642,0.2695,0.2785,0.2911,0.2915,0.2953,0.296,0.3027,0.3129,0.297,0.2972,0.2929,0.3218,0.2898,0.2882,0.3148,0.3153,0.3157,0.3111,0,0.2312,0.2331,0.2349,0.2406,0.2424,0.2487,0.2575,0.2669,0.2732,0.2823,0.2917,0.2991,0.2993,0.3012,0.3102,0.3122,0.3182,0.3136,0.3119,0.3118,0.2814,0.2896,0.2717,0.2639,0.3125,0.3127,0.3129,0,0.2317,0.2332,0.2368,0.2449,0.2467,0.2515,0.2663,0.2738,0.2893,0.2941,0.3053,0.3086,0.3215,0.318,0.3302,0.3257,0.3268,0.327,0.3268,0.2952,0.2828,0.2614,0.2647,0.2557,0.3151,0.3149,0.3148,0,0.2308,0.2357,0.2388,0.2407,0.2495,0.2562,0.2634,0.2778,0.2858,0.3002,0.3049,0.3191,0.3229,0.3314,0.3298,0.3318,0.3364,0.3396,0.3122,0.3095,0.2932,0.288,0.2873,0.3523,0.3523,0.3523,0.3523,0,0.2309,0.2338,0.238,0.2395,0.2475,0.2546,0.2655,0.2754,0.2882,0.297,0.3087,0.3149,0.3271,0.3293,0.3314,0.3196,0.3381,0.3141,0.3085,0.2949,0.2902,0.2802,0.2786,0.3521,0.3521,0.3522,0.3522,0,0.2287,0.2305,0.2345,0.2426,0.2459,0.2516,0.2647,0.2729,0.2836,0.2948,0.299,0.3131,0.3116,0.3137,0.3208,0.315,0.2978,0.3035,0.2782,0.2695,0.2314,0.2309,0.2165,0.2123,0.2745,0.2737,0.2731,0,0.2271,0.2281,0.2348,0.2383,0.2415,0.2505,0.2579,0.2701,0.2775,0.2922,0.2969,0.2985,0.2972,0.2864,0.2746,0.2628,0.2669,0.2397,0.2436,0.2252,0.2214,0.2203,0.2184,0.226,0.225,0.2242,0.2236,0,0.2266,0.2281,0.2321,0.2367,0.2428,0.2501,0.2597,0.2636,0.2771,0.282,0.285,0.2836,0.2678,0.2443,0.2221,0.2169,0.2213,0.2216,0.2179,0.1936,0.1787,0.1729,0.226,0.2163,0.217,0.2176,0.218,0.2183,0.2273,0.229,0.2332,0.237,0.2433,0.2478,0.2491,0.2558,0.2602,0.2599,0.2675,0.2514,0.2253,0.1894,0.1801,0.146,0.1642,0.1423,0.1459,0.1486,0.1361,0.1622,0.1354,0.1357,0.1359,0.1361,0.1362,0,0.2288,0.2306,0.2343,0.2372,0.2391,0.2439,0.2492,0.2454,0.2408,0.2349,0.2292,0.1899,0.159,0.1348,0.0941,0.0783,0.0866,0.0742,0.0815,0.0867,0.1233,0.1125,0.0607,0.0607,0.0607,0.0608,0.0608,0.0608,0.2309,0.2328,0.232,0.2315,0.2326,0.2296,0.2285,0.2204,0.2117,0.1825,0.1535,0.1395,0.1093,0.0673,0.0357,0.0332,0.0381,0.0231,0.0363,0.0717,0.0789,0.0859,0.0757,0.0171,0.017,-0.0014,-0.0016,-0.0018]},{"header":{"parameterUnit":"m.s-1","parameterCategory":2,"la1":30.2991,"la2":30.254,"lo1":-89.0895,"lo2":-89.0444,"dy":0.0017,"dx":0.0017,"nx":28,"ny":28,"refTime":"2025-06-10T03:00:00:Z","depth":"0","parameterNumber":3,"parameterNumberName":"V-component_of_CURRENTS"},"data":[0,0,0,0,0,0,0,0,0,0,0,0,0,0,0,0,0,0,0,0,0,0,0,0,0,0,0,0,0,0,0,0,0,0,0,0,0,0,0,0,0,0,0,0,0,0,0,0,0,0,0,0,0,0,0,0,0,0,0.0337,0.0338,0,0.0354,0.0354,0.0354,0.0357,0.0357,0.0357,0.0357,0.0382,0.0383,0.0384,0,0,0,0,0,0,0,0,0,0,0,0,0,0.0297,0.0298,0.0337,0.0338,0.0338,0.0354,0.0354,0.0354,0.0357,0.0357,0.0357,0.0356,0.0382,0.0383,0.0384,0,0,0,0,0,0,0,0,0,0,0,0,0,0.0314,0.0298,0.0337,0.0342,0.0342,0.0354,0.0354,0.0354,0.0357,0.0357,0.0357,0.0356,0.0382,0.0383,0.0384,0.0393,0,0,0.0387,0.0388,0,0,0,0,0,0,0,0,0.0313,0.0315,0.0341,0.0342,0.0342,0.0354,0.035,0.0368,0.0357,0.035,0.0357,0.0356,0.0374,0.0376,0.0378,0.0394,0.0395,0.0387,0.0388,0.0388,0.0389,0,0,0,0,0,0,0,0.0312,0.0314,0.0343,0.0341,0.0342,0.034,0.0342,0.0353,0.0362,0.0351,0.0351,0.0355,0.0375,0.0377,0.0379,0.0395,0.0387,0.0388,0.0389,0.0389,0.0418,0.0418,0,0,0,0,0,0,0.0312,0.0313,0.0342,0.0344,0.0328,0.034,0.0343,0.035,0.0362,0.0364,0.0355,0.0355,0.0375,0.0377,0.0379,0.0393,0.0388,0.039,0.039,0.0418,0.0418,0.0419,0,0,0,0,0,0,0.0311,0.0315,0.0342,0.0329,0.0333,0.0341,0.0349,0.035,0.0353,0.0365,0.0367,0.0357,0.0375,0.0378,0.0387,0.0394,0.039,0.0391,0.0418,0.0418,0.0418,0.042,0,0,0,0,0,0,0.031,0.0314,0.0318,0.0329,0.0333,0.035,0.0349,0.035,0.0355,0.0356,0.0367,0.0369,0.0375,0.0385,0.0388,0.0396,0.0392,0.0418,0.0418,0.0418,0.0419,0.042,0.042,0,0,0,0,0,0.0309,0.0319,0.0318,0.0322,0.0339,0.0351,0.0352,0.0357,0.0356,0.0359,0.0363,0.0369,0.0389,0.0386,0.039,0.0398,0.0418,0.0418,0.0418,0.0419,0.042,0.042,0,0,0,0,0,0,0.0304,0.0321,0.032,0.0335,0.0341,0.0351,0.0357,0.0358,0.0363,0.0364,0.0371,0.0373,0.0384,0.039,0.0387,0.0406,0.0404,0.0405,0.0404,0.0404,0.0405,0.0448,0.0393,0,0,0,0,0,0.0305,0.0316,0.0327,0.0337,0.0342,0.0348,0.0352,0.0356,0.0363,0.0365,0.0372,0.038,0.0387,0.0394,0.0402,0.0414,0.0459,0.0421,0.0421,0.0422,0.0459,0.0557,0.0571,0.0419,0.0419,0.0419,0,0,0.0306,0.0316,0.0322,0.0336,0.0342,0.0358,0.035,0.036,0.0371,0.0368,0.0383,0.0381,0.039,0.0401,0.0407,0.0408,0.0474,0.0422,0.0422,0.046,0.0559,0.0574,0.0588,0.0419,0.0419,0.0419,0,0,0.0317,0.0322,0.0336,0.0345,0.0357,0.0363,0.0366,0.0376,0.0378,0.039,0.0387,0.04,0.0405,0.0421,0.0428,0.0439,0.0471,0.0423,0.0465,0.0559,0.0573,0.0587,0.0606,0.0621,0.0426,0.0426,0.0426,0,0.0316,0.034,0.034,0.0358,0.0372,0.0367,0.0388,0.0389,0.0399,0.0414,0.0397,0.0438,0.0427,0.0469,0.0458,0.0444,0.0481,0.046,0.0563,0.0578,0.0592,0.0609,0.0626,0.0426,0.0426,0.0426,0.0426,0,0.0341,0.036,0.037,0.0393,0.0403,0.0421,0.0426,0.0434,0.0435,0.0446,0.0483,0.0481,0.052,0.0496,0.0475,0.0555,0.0539,0.0551,0.0569,0.0608,0.0621,0.0639,0.0426,0.0426,0.0426,0.0426,0,0,0.0348,0.0382,0.0386,0.0409,0.0427,0.0443,0.0459,0.0488,0.0526,0.0526,0.0596,0.0577,0.0593,0.0604,0.0587,0.0646,0.0726,0.0636,0.064,0.0665,0.0893,0.083,0.0843,0.0767,0.0771,0.0775,0.0841,0,0.0371,0.0414,0.0423,0.0467,0.0494,0.05,0.0525,0.0548,0.0569,0.0632,0.0645,0.0697,0.0629,0.0658,0.0706,0.0745,0.0784,0.0705,0.0844,0.0847,0.0799,0.0867,0.0845,0.0901,0.0859,0.0862,0.0864,0,0.04,0.0427,0.0472,0.0524,0.0538,0.0561,0.0622,0.0645,0.0712,0.0735,0.0794,0.082,0.089,0.0841,0.0942,0.0898,0.0897,0.0911,0.0915,0.0887,0.0822,0.0867,0.0936,0.0931,0.0892,0.089,0.0888,0,0.0419,0.0467,0.0507,0.0523,0.0573,0.0599,0.0627,0.068,0.0727,0.0822,0.0898,0.0967,0.1047,0.1081,0.1071,0.1035,0.1187,0.1147,0.108,0.1071,0.1098,0.1086,0.1202,0.1236,0.1236,0.1236,0.1236,0,0.045,0.0486,0.0522,0.0548,0.0611,0.0629,0.0709,0.0742,0.0833,0.0935,0.0965,0.1087,0.1125,0.1198,0.1154,0.1175,0.1257,0.1119,0.1116,0.1086,0.1072,0.1105,0.1097,0.1238,0.1238,0.1237,0.1237,0,0.0471,0.0492,0.0547,0.0601,0.0623,0.0667,0.0753,0.082,0.0893,0.1044,0.1092,0.1224,0.132,0.1303,0.1377,0.13,0.1304,0.1277,0.1191,0.1178,0.1089,0.1081,0.1211,0.1239,0.1237,0.1237,0.1236,0,0.0488,0.0517,0.0582,0.062,0.0648,0.0714,0.0771,0.084,0.0924,0.1136,0.1231,0.1372,0.1482,0.1522,0.142,0.1342,0.132,0.1251,0.1182,0.1116,0.1108,0.1095,0.111,0.119,0.1189,0.1188,0.1188,0,0.0526,0.0544,0.0586,0.066,0.0721,0.0799,0.0889,0.0967,0.109,0.1236,0.1453,0.1567,0.16,0.1557,0.1418,0.1347,0.1259,0.1231,0.124,0.1157,0.1087,0.11,0.1052,0.1181,0.1182,0.1182,0.1183,0.1183,0.055,0.0584,0.0637,0.0706,0.078,0.0883,0.0964,0.1091,0.1252,0.149,0.1587,0.173,0.1644,0.1471,0.1394,0.1196,0.1222,0.113,0.1143,0.1148,0.1147,0.1038,0.1113,0.1114,0.1114,0.1114,0.1114,0,0.0579,0.0617,0.0683,0.0769,0.0848,0.0886,0.1046,0.1155,0.1364,0.1547,0.1731,0.1678,0.1593,0.1436,0.1187,0.1117,0.1111,0.1093,0.1105,0.1139,0.1118,0.1084,0.1067,0.1067,0.1067,0.1067,0.1067,0.1067,0.0597,0.0652,0.0681,0.0804,0.087,0.1003,0.1099,0.1295,0.1438,0.1616,0.1623,0.1638,0.1474,0.1254,0.1113,0.1092,0.1125,0.108,0.1131,0.1115,0.112,0.1125,0.1094,0.1079,0.1079,0.1153,0.1153,0.1154]}],[{"header":{"parameterUnit":"m.s-1","parameterCategory":2,"la1":30.2991,"la2":30.254,"lo1":-89.0895,"lo2":-89.0444,"dy":0.0017,"dx":0.0017,"nx":28,"ny":28,"refTime":"2025-06-10T03:00:00:Z","depth":"2","parameterNumber":2,"parameterNumberName":"U-component_of_CURRENTS"},"data":[0,0,0,0,0,0,0,0,0,0,0,0,0,0,0,0,0,0,0,0,0,0,0,0,0,0,0,0,0,0,0,0,0,0,0,0,0,0,0,0,0,0,0,0,0,0,0,0,0,0,0,0,0,0,0,0,0,0,0.1667,0.1667,0,0.1678,0.1678,0.1678,0.1655,0.1655,0.1654,0.1653,0.1659,0.166,0.166,0,0,0,0,0,0,0,0,0,0,0,0,0,0.169,0.169,0.1667,0.1667,0.1667,0.1678,0.1678,0.1678,0.1655,0.1654,0.1654,0.1653,0.1658,0.1659,0.166,0,0,0,0,0,0,0,0,0,0,0,0,0,0.1689,0.1689,0.1667,0.1657,0.1656,0.1678,0.1678,0.1678,0.1656,0.1654,0.1653,0.1652,0.1658,0.1659,0.1661,0.1692,0,0,0.1665,0.1665,0,0,0,0,0,0,0,0,0.1689,0.1688,0.1658,0.1658,0.1657,0.1664,0.1688,0.1682,0.1656,0.1656,0.1653,0.1652,0.1661,0.1662,0.1667,0.1692,0.1692,0.1665,0.1665,0.1666,0.1666,0,0,0,0,0,0,0,0.1689,0.1688,0.1671,0.1658,0.1657,0.1674,0.1672,0.1687,0.1665,0.1656,0.1654,0.1656,0.166,0.1665,0.1667,0.1692,0.1665,0.1666,0.1667,0.1667,0.1772,0.1774,0,0,0,0,0,0,0.1685,0.1687,0.1671,0.1672,0.167,0.1674,0.1672,0.1663,0.1665,0.1664,0.1656,0.1654,0.1664,0.1665,0.1667,0.1719,0.1666,0.1667,0.1668,0.177,0.1772,0.1774,0,0,0,0,0,0,0.1685,0.1683,0.1671,0.168,0.168,0.1674,0.1665,0.1664,0.1674,0.1665,0.1664,0.1668,0.1663,0.1665,0.1682,0.1719,0.1668,0.1669,0.1767,0.1771,0.1773,0.1815,0,0,0,0,0,0,0.1686,0.1683,0.1685,0.168,0.1679,0.1692,0.1666,0.1665,0.1676,0.1674,0.1675,0.1674,0.1662,0.168,0.1683,0.1719,0.167,0.1765,0.1769,0.1772,0.1811,0.1819,0.1825,0,0,0,0,0,0.1686,0.169,0.1685,0.1684,0.1679,0.1693,0.1695,0.1688,0.1678,0.1692,0.1685,0.1674,0.1707,0.1682,0.1685,0.1723,0.1763,0.1768,0.1772,0.1807,0.1817,0.1825,0,0,0,0,0,0,0.1701,0.1688,0.1682,0.1681,0.1692,0.1689,0.1701,0.1699,0.1706,0.1702,0.169,0.1689,0.1728,0.1721,0.1694,0.1768,0.1738,0.1744,0.1764,0.1773,0.178,0.1803,0.1671,0,0,0,0,0,0.1706,0.1709,0.1701,0.1708,0.1709,0.171,0.1717,0.1715,0.1716,0.1718,0.1721,0.1729,0.1752,0.1755,0.1776,0.1804,0.182,0.1836,0.1844,0.185,0.1873,0.1981,0.2001,0.1789,0.1789,0.1789,0,0,0.1716,0.1711,0.1713,0.1713,0.1716,0.1729,0.1711,0.1727,0.1733,0.172,0.1737,0.1761,0.1769,0.1805,0.1822,0.1798,0.1899,0.1855,0.186,0.1881,0.1988,0.2009,0.2027,0.1792,0.1792,0.1791,0,0,0.1734,0.1729,0.1733,0.1743,0.1751,0.1755,0.1763,0.1769,0.1764,0.1794,0.1789,0.1837,0.1857,0.1876,0.1885,0.1951,0.1945,0.1957,0.1999,0.2103,0.2122,0.2139,0.2099,0.2112,0.1948,0.1948,0.1948,0,0.1752,0.1743,0.1743,0.1751,0.175,0.1768,0.177,0.1783,0.1799,0.1815,0.1806,0.1903,0.1899,0.1962,0.1974,0.197,0.1984,0.1957,0.2114,0.2132,0.2149,0.2104,0.2119,0.1951,0.195,0.195,0.195,0,0.1759,0.1765,0.1772,0.1781,0.1786,0.18,0.1803,0.1826,0.1838,0.1872,0.195,0.1975,0.2038,0.2044,0.202,0.2134,0.2085,0.212,0.209,0.2173,0.2119,0.2133,0.1954,0.1953,0.1952,0.1952,0,0,0.1768,0.1774,0.1779,0.178,0.1795,0.1803,0.1819,0.1851,0.1907,0.1953,0.2022,0.2079,0.2137,0.2153,0.2157,0.2229,0.2311,0.2218,0.2223,0.2172,0.2451,0.2227,0.2219,0.2391,0.2395,0.2399,0.2334,0,0.1775,0.1782,0.1778,0.1801,0.1799,0.1812,0.1842,0.1884,0.194,0.2027,0.2083,0.2174,0.2163,0.2211,0.229,0.2335,0.2366,0.2319,0.2385,0.2384,0.2175,0.2237,0.2053,0.1967,0.2347,0.2349,0.2351,0,0.1769,0.1776,0.178,0.1803,0.1805,0.1843,0.19,0.1927,0.2047,0.2107,0.2224,0.2277,0.2372,0.2367,0.2491,0.2468,0.2461,0.2478,0.2477,0.2278,0.2192,0.1966,0.1978,0.2374,0.2373,0.2371,0.2369,0,0.1751,0.1771,0.1771,0.1778,0.1821,0.1842,0.1875,0.1976,0.201,0.2177,0.2251,0.2397,0.2447,0.2547,0.2544,0.2547,0.2653,0.2662,0.2432,0.2409,0.2269,0.2227,0.2752,0.2752,0.2752,0.2752,0.2753,0,0.174,0.1748,0.1783,0.1794,0.1843,0.1855,0.1944,0.2014,0.2117,0.2192,0.2308,0.2378,0.2511,0.2556,0.2583,0.2523,0.2685,0.2441,0.2412,0.2262,0.2222,0.2613,0.2598,0.275,0.275,0.2751,0.2751,0,0.1716,0.1737,0.1746,0.1799,0.1839,0.1866,0.1952,0.2012,0.213,0.222,0.226,0.2369,0.2417,0.2468,0.2571,0.2509,0.2522,0.2446,0.2171,0.211,0.2179,0.2167,0.2195,0.2188,0.2181,0.2176,0.2171,0,0.17,0.1701,0.1753,0.178,0.1817,0.1882,0.1933,0.2028,0.2061,0.2198,0.2207,0.2266,0.2262,0.227,0.2216,0.2165,0.2316,0.1929,0.1911,0.217,0.214,0.2138,0.2135,0.1705,0.1697,0.1691,0.1685,0,0.1667,0.1683,0.1706,0.1765,0.1818,0.185,0.1908,0.1929,0.2015,0.2057,0.2099,0.2104,0.2056,0.1901,0.1778,0.1745,0.1935,0.1782,0.2223,0.1852,0.1699,0.167,0.1687,0.1627,0.1633,0.1637,0.164,0.1643,0.1652,0.1648,0.1686,0.1732,0.1781,0.1782,0.1783,0.1806,0.1805,0.1801,0.1889,0.1817,0.179,0.1481,0.1394,0.1308,0.1455,0.1407,0.1434,0.1466,0.14,0.1242,0.1063,0.1066,0.1068,0.107,0.1072,0,0.1613,0.1611,0.1648,0.1671,0.1671,0.1738,0.1733,0.1672,0.1611,0.1594,0.1575,0.1363,0.1165,0.1157,0.0909,0.0824,0.089,0.0792,0.0912,0.0966,0.1016,0.0936,0.0472,0.0471,0.0469,0.0468,0,0,0.1596,0.1598,0.1598,0.1564,0.1585,0.1547,0.1525,0.1435,0.1369,0.1229,0.1142,0.1162,0.1134,0.0839,0.0737,0.0578,0.0788,0.0528,0.1006,0.1206,0.1256,0.1352,0.1284,0,0,0,0,0]},{"header":{"parameterUnit":"m.s-1","parameterCategory":2,"la1":30.2991,"la2":30.254,"lo1":-89.0895,"lo2":-89.0444,"dy":0.0017,"dx":0.0017,"nx":28,"ny":28,"refTime":"2025-06-10T03:00:00:Z","depth":"2","parameterNumber":3,"parameterNumberName":"V-component_of_CURRENTS"},"data":[0,0,0,0,0,0,0,0,0,0,0,0,0,0,0,0,0,0,0,0,0,0,0,0,0,0,0,0,0,0,0,0,0,0,0,0,0,0,0,0,0,0,0,0,0,0,0,0,0,0,0,0,0,0,0,0,0,0,0.0138,0.0138,0,0.0147,0.0147,0.0147,0.0146,0.0146,0.0146,0.0146,0.0172,0.0172,0.0173,0,0,0,0,0,0,0,0,0,0,0,0,0,0.0115,0.0116,0.0138,0.0138,0.0138,0.0147,0.0147,0.0147,0.0146,0.0146,0.0146,0.0146,0.0171,0.0172,0.0173,0,0,0,0,0,0,0,0,0,0,0,0,0,0.0125,0.0116,0.0138,0.0138,0.0139,0.0147,0.0147,0.0148,0.0146,0.0146,0.0146,0.0146,0.0171,0.0172,0.0174,0.0187,0,0,0.0177,0.0178,0,0,0,0,0,0,0,0,0.0125,0.0126,0.0138,0.0138,0.0139,0.0145,0.0149,0.0161,0.0147,0.0144,0.0146,0.0146,0.0164,0.0166,0.0169,0.0188,0.0189,0.0178,0.0178,0.0179,0.0179,0,0,0,0,0,0,0,0.0124,0.0126,0.0142,0.0138,0.0139,0.0137,0.0138,0.0151,0.0156,0.0144,0.0144,0.0145,0.0164,0.0167,0.0169,0.0189,0.0177,0.0179,0.0179,0.018,0.0206,0.0206,0,0,0,0,0,0,0.0123,0.0125,0.0142,0.0142,0.013,0.0137,0.0139,0.0144,0.0155,0.0157,0.0145,0.0144,0.0165,0.0168,0.017,0.0184,0.0179,0.018,0.0181,0.0206,0.0206,0.0206,0,0,0,0,0,0,0.0122,0.0124,0.0141,0.0133,0.0135,0.0138,0.0143,0.0144,0.0148,0.0156,0.0157,0.0148,0.0165,0.0168,0.0182,0.0185,0.0181,0.0182,0.0206,0.0206,0.0206,0.0213,0,0,0,0,0,0,0.0122,0.0124,0.0127,0.0133,0.0136,0.0151,0.0144,0.0144,0.0148,0.0148,0.0159,0.0161,0.0165,0.018,0.0183,0.0187,0.0183,0.0206,0.0206,0.0206,0.0213,0.0213,0.0213,0,0,0,0,0,0.0121,0.0127,0.0127,0.0129,0.0139,0.0151,0.0153,0.0154,0.0148,0.0155,0.0158,0.0161,0.0181,0.0181,0.0185,0.0189,0.0206,0.0206,0.0206,0.0213,0.0213,0.0213,0,0,0,0,0,0,0.0114,0.0127,0.0127,0.0135,0.0144,0.0151,0.0155,0.0155,0.0163,0.0162,0.0166,0.0169,0.0179,0.0183,0.0183,0.0194,0.0192,0.0192,0.0196,0.0196,0.0196,0.0222,0.0184,0,0,0,0,0,0.0115,0.0125,0.0134,0.0141,0.0145,0.015,0.0154,0.0157,0.0164,0.0166,0.0173,0.0177,0.0181,0.0188,0.0194,0.0207,0.0227,0.0209,0.0209,0.021,0.0232,0.0288,0.0296,0.0206,0.0206,0.0206,0,0,0.0113,0.0122,0.0127,0.0141,0.0146,0.0161,0.0152,0.0162,0.0173,0.0169,0.0184,0.0181,0.0184,0.0193,0.0198,0.0199,0.0234,0.0209,0.021,0.0232,0.0289,0.0298,0.0306,0.0205,0.0205,0.0205,0,0,0.0122,0.0125,0.0139,0.015,0.0162,0.0167,0.0171,0.018,0.0183,0.0196,0.019,0.0197,0.0203,0.0211,0.0213,0.0222,0.0233,0.0209,0.0237,0.029,0.0299,0.0307,0.0299,0.0307,0.0212,0.0212,0.0212,0,0.012,0.0141,0.0144,0.0162,0.0174,0.0172,0.0192,0.0195,0.0207,0.0214,0.0202,0.0225,0.0217,0.0245,0.0234,0.0227,0.0239,0.0235,0.0294,0.0303,0.0311,0.0301,0.0309,0.0212,0.0212,0.0212,0.0212,0,0.0143,0.016,0.0169,0.0194,0.0205,0.0221,0.0229,0.0236,0.0234,0.0239,0.0262,0.0263,0.0282,0.0266,0.0248,0.0294,0.0274,0.0287,0.0298,0.0321,0.0307,0.0316,0.0213,0.0212,0.0212,0.0212,0,0,0.0144,0.0179,0.0184,0.0203,0.0225,0.024,0.0255,0.0274,0.0298,0.0298,0.0346,0.0325,0.033,0.0334,0.0323,0.0356,0.0388,0.034,0.0343,0.034,0.0467,0.0424,0.0428,0.0419,0.0421,0.0423,0.0418,0,0.0164,0.0205,0.0217,0.0256,0.0279,0.0285,0.0304,0.0319,0.0333,0.0377,0.038,0.0416,0.0356,0.0378,0.0397,0.0418,0.0419,0.0386,0.044,0.044,0.0408,0.0441,0.0433,0.0428,0.0426,0.0428,0.0429,0,0.0187,0.0214,0.0256,0.0297,0.0308,0.0327,0.037,0.039,0.0432,0.0447,0.0482,0.05,0.0541,0.05,0.0535,0.052,0.0483,0.0482,0.0483,0.0458,0.0416,0.0413,0.0443,0.0443,0.0442,0.0441,0.044,0,0.0195,0.0241,0.0277,0.0292,0.0336,0.0352,0.0372,0.0407,0.045,0.0511,0.0573,0.0603,0.066,0.065,0.062,0.0591,0.0666,0.0631,0.0542,0.0536,0.055,0.0541,0.0644,0.0644,0.0644,0.0644,0.0644,0,0.0216,0.0246,0.0284,0.0306,0.0352,0.0371,0.043,0.0448,0.0526,0.0613,0.0618,0.0715,0.0709,0.0747,0.068,0.0648,0.0709,0.0561,0.0553,0.0543,0.0534,0.0575,0.0567,0.0643,0.0644,0.0644,0.0644,0,0.0224,0.0249,0.0295,0.0342,0.036,0.0391,0.047,0.0526,0.0581,0.0714,0.0752,0.083,0.0868,0.083,0.0831,0.0738,0.0706,0.0659,0.0612,0.0599,0.0507,0.0499,0.0567,0.0566,0.0565,0.0564,0.0563,0,0.0234,0.0257,0.0318,0.0355,0.0379,0.0432,0.0483,0.0542,0.0627,0.0794,0.0881,0.0955,0.1,0.0958,0.0841,0.0719,0.0702,0.0608,0.0549,0.0524,0.051,0.0503,0.0497,0.0543,0.0543,0.0542,0.0542,0,0.0253,0.0271,0.0312,0.0384,0.0441,0.0516,0.06,0.0682,0.0794,0.0905,0.1071,0.112,0.1073,0.0971,0.0787,0.0699,0.0632,0.0588,0.0641,0.0558,0.0501,0.0486,0.0482,0.0536,0.0537,0.0537,0.0537,0.0537,0.0268,0.0297,0.0351,0.0421,0.0493,0.0602,0.0678,0.08,0.0938,0.1106,0.1157,0.1185,0.1089,0.0825,0.0718,0.0579,0.0573,0.0496,0.0499,0.0503,0.0495,0.044,0.0458,0.0458,0.0458,0.0458,0.0458,0,0.0289,0.0325,0.039,0.0479,0.056,0.0598,0.0765,0.0855,0.1026,0.1116,0.1207,0.1063,0.0937,0.0811,0.0595,0.0472,0.0468,0.0432,0.0458,0.0463,0.0468,0.046,0.0413,0.0413,0.0413,0.0412,0,0,0.0302,0.0358,0.0391,0.0515,0.0584,0.0706,0.0805,0.0957,0.1045,0.1114,0.1093,0.1074,0.0929,0.0763,0.0632,0.0521,0.0513,0.0492,0.0536,0.0588,0.0594,0.051,0.0504,0,0,0,0,0]}],[{"header":{"parameterUnit":"m.s-1","parameterCategory":2,"la1":30.2991,"la2":30.254,"lo1":-89.0895,"lo2":-89.0444,"dy":0.0017,"dx":0.0017,"nx":28,"ny":28,"refTime":"2025-06-10T03:00:00:Z","depth":"4","parameterNumber":2,"parameterNumberName":"U-component_of_CURRENTS"},"data":[0,0,0,0,0,0,0,0,0,0,0,0,0,0,0,0,0,0,0,0,0,0,0,0,0,0,0,0,0,0,0,0,0,0,0,0,0,0,0,0,0,0,0,0,0,0,0,0,0,0,0,0,0,0,0,0,0,0,0.0935,0.0936,0,0.0918,0.0917,0.0917,0.0926,0.0927,0.0928,0.0928,0.0904,0.0903,0.0901,0,0,0,0,0,0,0,0,0,0,0,0,0,0.0948,0.0948,0.0935,0.0936,0.0936,0.0918,0.0917,0.0917,0.0926,0.0927,0.0928,0.0929,0.0904,0.0903,0.0901,0,0,0,0,0,0,0,0,0,0,0,0,0,0.0934,0.0947,0.0935,0.0941,0.0942,0.0918,0.0917,0.0917,0.0926,0.0927,0.0928,0.0929,0.0905,0.0903,0.0901,0.0862,0,0,0.0894,0.0893,0,0,0,0,0,0,0,0,0.0935,0.0933,0.094,0.0941,0.0941,0.0929,0.0913,0.09,0.0925,0.0927,0.0928,0.093,0.0913,0.0911,0.0899,0.0861,0.086,0.0894,0.0893,0.0892,0.0891,0,0,0,0,0,0,0,0.0936,0.0934,0.0924,0.094,0.0941,0.0935,0.0934,0.091,0.091,0.0927,0.0929,0.0933,0.0913,0.0901,0.0898,0.086,0.0894,0.0892,0.0891,0.089,0.0892,0.0893,0,0,0,0,0,0,0.0946,0.0935,0.0925,0.0924,0.0946,0.0934,0.0933,0.0928,0.0911,0.0911,0.0932,0.0934,0.0904,0.0901,0.0898,0.0906,0.0892,0.089,0.0889,0.089,0.0892,0.0893,0,0,0,0,0,0,0.0946,0.0945,0.0926,0.0933,0.0931,0.0933,0.0928,0.0927,0.0941,0.0915,0.0914,0.0949,0.0905,0.0901,0.0911,0.0903,0.0889,0.0887,0.0889,0.0891,0.0893,0.0888,0,0,0,0,0,0,0.0946,0.0945,0.0953,0.0933,0.0931,0.0927,0.0927,0.0926,0.0942,0.0944,0.0929,0.0926,0.0905,0.0914,0.0909,0.09,0.0885,0.0887,0.089,0.0892,0.0886,0.0889,0.0892,0,0,0,0,0,0.0947,0.0948,0.0953,0.0953,0.0939,0.0928,0.0926,0.0929,0.0942,0.0946,0.0951,0.0928,0.0926,0.0913,0.0906,0.0897,0.0886,0.0889,0.0892,0.0885,0.0889,0.0892,0,0,0,0,0,0,0.0955,0.0949,0.0954,0.0954,0.0951,0.0931,0.094,0.0942,0.0946,0.0958,0.0938,0.0935,0.0943,0.0932,0.0918,0.0912,0.0905,0.0906,0.0902,0.0905,0.0908,0.092,0.0883,0,0,0,0,0,0.0962,0.0964,0.0956,0.0958,0.0962,0.0956,0.0957,0.0959,0.0957,0.0961,0.0951,0.095,0.0943,0.0937,0.0931,0.0918,0.0943,0.0915,0.0918,0.092,0.0929,0.1002,0.1012,0.0903,0.0903,0.0903,0,0,0.0965,0.0964,0.0965,0.0961,0.0961,0.0955,0.096,0.0967,0.0959,0.0956,0.0954,0.096,0.0948,0.094,0.0942,0.0931,0.0958,0.0924,0.0925,0.0934,0.1006,0.1017,0.1026,0.0905,0.0905,0.0905,0,0,0.0965,0.0975,0.0975,0.0975,0.0983,0.0974,0.0984,0.0978,0.0978,0.0979,0.0979,0.0998,0.0974,0.0968,0.096,0.098,0.0978,0.0971,0.0979,0.1049,0.1058,0.1067,0.1082,0.1092,0.0964,0.0964,0.0964,0,0.0974,0.0966,0.0974,0.0974,0.0971,0.0985,0.0978,0.0974,0.0972,0.0967,0.0988,0.1001,0.0989,0.0986,0.0989,0.0983,0.101,0.0957,0.1052,0.1061,0.107,0.1084,0.1095,0.0964,0.0964,0.0964,0.0964,0,0.0964,0.0967,0.097,0.0969,0.0966,0.0968,0.0962,0.096,0.0973,0.0972,0.0996,0.1013,0.1028,0.1018,0.1001,0.1043,0.1035,0.1052,0.1038,0.1081,0.1092,0.1104,0.0964,0.0964,0.0964,0.0964,0,0,0.0961,0.0962,0.0967,0.0954,0.0965,0.0949,0.0944,0.093,0.0932,0.0962,0.0985,0.0989,0.1033,0.1032,0.1035,0.1078,0.1144,0.1086,0.1089,0.1091,0.1267,0.1113,0.111,0.1183,0.1186,0.1188,0.1237,0,0.0954,0.094,0.0946,0.0926,0.0912,0.0916,0.0905,0.0899,0.0916,0.0944,0.099,0.1031,0.1028,0.1062,0.1107,0.1151,0.1181,0.1127,0.1235,0.1237,0.1088,0.1122,0.1197,0.1246,0.1249,0.125,0.1252,0,0.0938,0.0927,0.0912,0.0884,0.0881,0.0877,0.0859,0.0858,0.0896,0.092,0.0989,0.1047,0.112,0.1136,0.1242,0.1213,0.1238,0.1266,0.1269,0.1139,0.1106,0.1205,0.1273,0.1272,0.127,0.1269,0.1267,0,0.0908,0.0894,0.0876,0.0871,0.0855,0.0844,0.0842,0.0856,0.0863,0.0943,0.0989,0.1087,0.1176,0.1247,0.13,0.1294,0.141,0.1415,0.129,0.1278,0.1404,0.1395,0.149,0.149,0.149,0.149,0.1489,0,0.0881,0.0863,0.0862,0.0852,0.0823,0.0826,0.0819,0.0829,0.0886,0.0914,0.1007,0.1067,0.122,0.1297,0.1327,0.1333,0.1442,0.1293,0.129,0.1395,0.1385,0.141,0.14,0.1491,0.1491,0.1491,0.149,0,0.0844,0.0852,0.0824,0.0814,0.0814,0.0796,0.0808,0.0797,0.087,0.0927,0.0973,0.1098,0.1194,0.1282,0.14,0.1357,0.1381,0.1346,0.142,0.1421,0.1192,0.1182,0.1229,0.1224,0.122,0.1217,0.1214,0,0.0819,0.0809,0.0805,0.0786,0.0786,0.0768,0.0751,0.0791,0.08,0.092,0.095,0.1083,0.115,0.12,0.1281,0.1315,0.1293,0.128,0.1257,0.1178,0.1171,0.1167,0.1162,0.1208,0.1207,0.1205,0.1204,0,0.0767,0.0785,0.0767,0.075,0.0727,0.068,0.068,0.0691,0.075,0.0837,0.0917,0.0973,0.1059,0.1139,0.1163,0.1181,0.1284,0.1237,0.1246,0.1225,0.1152,0.1149,0.1149,0.119,0.1192,0.1194,0.1194,0,0.0739,0.0714,0.0714,0.0683,0.0655,0.0597,0.0598,0.0609,0.0639,0.0793,0.0816,0.094,0.1062,0.1065,0.1085,0.1091,0.1078,0.1037,0.1056,0.1072,0.0992,0.0874,0.0828,0,0,0,0,0,0.0696,0.066,0.0635,0.0581,0.0555,0.0538,0.0544,0.0555,0.0643,0.0677,0.075,0.082,0.0874,0.093,0.0908,0.0978,0.1059,0.0939,0.1015,0.1112,0.1128,0.1044,0,0,0,0,0,0,0.0658,0.0638,0.0615,0.0512,0.0463,0.0409,0.0409,0.046,0.0489,0.0611,0.0661,0.0743,0.0822,0.0899,0.0894,0.0903,0.0921,0.1008,0.1004,0.1102,0.1117,0.113,0.105,0,0,0,0,0]},{"header":{"parameterUnit":"m.s-1","parameterCategory":2,"la1":30.2991,"la2":30.254,"lo1":-89.0895,"lo2":-89.0444,"dy":0.0017,"dx":0.0017,"nx":28,"ny":28,"refTime":"2025-06-10T03:00:00:Z","depth":"4","parameterNumber":3,"parameterNumberName":"V-component_of_CURRENTS"},"data":[0,0,0,0,0,0,0,0,0,0,0,0,0,0,0,0,0,0,0,0,0,0,0,0,0,0,0,0,0,0,0,0,0,0,0,0,0,0,0,0,0,0,0,0,0,0,0,0,0,0,0,0,0,0,0,0,0,0,0.0092,0.0092,0,0.0102,0.0102,0.0102,0.0098,0.0098,0.0098,0.0097,0.0141,0.0143,0.0144,0,0,0,0,0,0,0,0,0,0,0,0,0,0.0075,0.0075,0.0092,0.0092,0.0092,0.0102,0.0102,0.0102,0.0098,0.0098,0.0098,0.0097,0.0141,0.0143,0.0144,0,0,0,0,0,0,0,0,0,0,0,0,0,0.0084,0.0075,0.0092,0.0091,0.0091,0.0102,0.0102,0.0102,0.0099,0.0098,0.0098,0.0097,0.014,0.0143,0.0145,0.0168,0,0,0.0151,0.0152,0,0,0,0,0,0,0,0,0.0084,0.0085,0.0091,0.0091,0.0091,0.0097,0.0112,0.0126,0.0099,0.0097,0.0097,0.0097,0.013,0.0133,0.0137,0.017,0.0172,0.0152,0.0153,0.0154,0.0155,0,0,0,0,0,0,0,0.0083,0.0085,0.0097,0.0091,0.0091,0.0091,0.0092,0.0114,0.0117,0.0097,0.0096,0.0096,0.013,0.0134,0.0138,0.0173,0.0152,0.0154,0.0155,0.0156,0.023,0.0231,0,0,0,0,0,0,0.008,0.0084,0.0097,0.0097,0.0085,0.0091,0.0092,0.0097,0.0116,0.0118,0.0096,0.0095,0.0131,0.0135,0.0139,0.0188,0.0154,0.0156,0.0157,0.0229,0.023,0.0231,0,0,0,0,0,0,0.008,0.0081,0.0096,0.009,0.0091,0.0092,0.0097,0.0097,0.0102,0.0115,0.0118,0.0101,0.0131,0.0136,0.0163,0.0189,0.0157,0.0159,0.0229,0.023,0.0231,0.0273,0,0,0,0,0,0,0.0079,0.0081,0.0085,0.009,0.0092,0.0109,0.0097,0.0098,0.0102,0.0101,0.012,0.0123,0.0131,0.0159,0.0165,0.0191,0.0161,0.0228,0.0229,0.023,0.0271,0.0275,0.0279,0,0,0,0,0,0.0079,0.0087,0.0085,0.0086,0.0096,0.011,0.0111,0.011,0.0103,0.0112,0.0121,0.0123,0.0171,0.0162,0.0168,0.0196,0.0227,0.0229,0.023,0.0269,0.0274,0.0279,0,0,0,0,0,0,0.0081,0.0088,0.0085,0.0095,0.0103,0.0109,0.0115,0.0113,0.0127,0.0127,0.0135,0.014,0.0172,0.0175,0.0165,0.0218,0.0198,0.0201,0.0225,0.0231,0.0235,0.0238,0.0163,0,0,0,0,0,0.0083,0.0092,0.0098,0.0106,0.011,0.0112,0.0117,0.0118,0.0129,0.0134,0.0147,0.0161,0.0183,0.0199,0.0215,0.0249,0.0226,0.0269,0.0273,0.0276,0.0282,0.0255,0.0257,0.0236,0.0236,0.0236,0,0,0.0085,0.0091,0.0095,0.0107,0.0112,0.0129,0.0114,0.0126,0.0147,0.0139,0.0171,0.0178,0.0194,0.0229,0.0244,0.0237,0.027,0.0278,0.0281,0.0285,0.0257,0.0259,0.0261,0.0237,0.0237,0.0236,0,0,0.0097,0.01,0.0111,0.0123,0.0133,0.0141,0.0145,0.0156,0.0166,0.0195,0.0195,0.0215,0.0248,0.0267,0.028,0.0317,0.029,0.0321,0.0353,0.0327,0.0329,0.033,0.0299,0.0297,0.0327,0.0327,0.0327,0,0.0098,0.0116,0.0117,0.0135,0.015,0.0148,0.0171,0.0185,0.0205,0.0223,0.0211,0.0255,0.0268,0.0314,0.0327,0.0329,0.0301,0.0335,0.0332,0.0333,0.0333,0.0301,0.0298,0.0329,0.0329,0.0329,0.0329,0,0.012,0.0137,0.0146,0.0171,0.0189,0.0208,0.0228,0.025,0.0259,0.0272,0.0309,0.0318,0.0344,0.0353,0.0356,0.0376,0.035,0.0336,0.0318,0.0337,0.0303,0.0299,0.0333,0.0332,0.0331,0.0331,0,0,0.0117,0.0154,0.0158,0.0181,0.0211,0.0231,0.0272,0.0311,0.034,0.0353,0.0384,0.042,0.0411,0.0425,0.0425,0.041,0.0391,0.0377,0.0375,0.0346,0.0322,0.031,0.0304,0.0367,0.0367,0.0367,0.0296,0,0.0135,0.0174,0.0193,0.0242,0.0266,0.0291,0.0334,0.037,0.0391,0.042,0.0428,0.0456,0.0443,0.0454,0.0438,0.0405,0.0383,0.0411,0.0309,0.0306,0.0292,0.0301,0.0366,0.0293,0.0292,0.0291,0.0291,0,0.0151,0.0179,0.0224,0.0287,0.0301,0.0335,0.0402,0.044,0.048,0.0496,0.0512,0.0507,0.0514,0.0482,0.0429,0.0443,0.0387,0.035,0.0346,0.0319,0.0288,0.027,0.0283,0.0284,0.0284,0.0285,0.0285,0,0.015,0.0205,0.0245,0.0264,0.033,0.0366,0.0408,0.0462,0.0506,0.0537,0.0554,0.055,0.0548,0.0484,0.0414,0.0415,0.0327,0.0318,0.0254,0.0252,0.0263,0.0263,0.0263,0.0263,0.0263,0.0263,0.0264,0,0.0164,0.0197,0.0248,0.0271,0.0338,0.0379,0.0453,0.0492,0.0545,0.0589,0.0589,0.0598,0.0543,0.049,0.0416,0.0324,0.0325,0.026,0.0235,0.0283,0.0285,0.026,0.0261,0.0261,0.0261,0.0262,0.0262,0,0.0159,0.0188,0.0238,0.0308,0.0338,0.0386,0.0486,0.0539,0.0579,0.0628,0.0638,0.0632,0.0567,0.0496,0.039,0.0332,0.0242,0.0202,0.0255,0.0233,0.0182,0.0185,0.0134,0.0133,0.0132,0.0131,0.0131,0,0.0162,0.0184,0.0258,0.0297,0.0333,0.0412,0.0478,0.0552,0.06,0.064,0.0656,0.0618,0.0597,0.0442,0.0363,0.0226,0.0204,0.0156,0.0179,0.0189,0.0169,0.0174,0.0179,0.013,0.0129,0.0129,0.0129,0,0.0172,0.0191,0.0232,0.0306,0.0374,0.0456,0.0541,0.0577,0.0651,0.068,0.0666,0.0607,0.0533,0.0433,0.0329,0.0228,0.0193,0.0147,0.0148,0.017,0.0183,0.0166,0.0171,0.0126,0.0127,0.0127,0.0127,0,0.0178,0.0202,0.0252,0.0322,0.0402,0.0477,0.0527,0.0585,0.0638,0.0675,0.0657,0.0591,0.056,0.0431,0.0328,0.0241,0.0223,0.0192,0.0191,0.0193,0.0236,0.0263,0.021,0,0,0,0,0,0.0188,0.0217,0.0273,0.0348,0.0423,0.0473,0.0565,0.0608,0.0664,0.0655,0.0662,0.059,0.0465,0.0414,0.0324,0.031,0.0205,0.0201,0.0168,0.0111,0.0114,0.0155,0,0,0,0,0,0,0.0196,0.024,0.0267,0.0356,0.0409,0.05,0.0558,0.0596,0.0596,0.0625,0.056,0.0551,0.043,0.0506,0.0312,0.0289,0.0253,0.0152,0.015,0.0109,0.0112,0.0114,0.0158,0,0,0,0,0]}]]